GW3591 Weather Reports


Display with metric or nautical units.
time (UTC)temp
F
wind
direction
speed
MPH
gust
MPH
rain 1hr
in
rain 24hr
in
rain mn
in
humidity
%
barometer
mb
20260505151907 81 218 0.0 1.0 0.00 0.00 0.00 42 1013.6
20260505151403 80 140 0.0 0.0 0.00 0.00 0.00 41 1013.4
20260505150855 80 147 0.0 0.0 0.00 0.00 0.00 43 1013.6
20260505150352 80 157 0.0 0.0 0.00 0.00 0.00 42 1013.6
20260505140311 77 203 0.0 0.0 0.00 0.00 0.00 45 1013.6
20260505130234 70 139 0.0 0.0 0.00 0.00 0.00 52 1014.2
20260505124725 69 214 2.0 3.0 0.00 0.00 0.00 53 1014.2
20260505124222 68 318 0.0 0.0 0.00 0.00 0.00 54 1014.1
20260505123717 69 249 0.0 0.0 0.00 0.00 0.00 54 1014.0
20260505123214 68 175 0.0 0.0 0.00 0.00 0.00 55 1013.9
20260505122710 67 4 0.0 0.0 0.00 0.00 0.00 55 1013.8
20260505122208 68 192 2.0 3.0 0.00 0.00 0.00 56 1014.2
20260505121659 67 176 4.0 6.0 0.00 0.00 0.00 56 1013.9
20260505121155 66 186 2.0 3.0 0.00 0.00 0.00 58 1014.1
20260505120651 65 231 0.0 0.0 0.00 0.00 0.00 60 1013.9
20260505120147 64 344 0.0 0.0 0.00 0.00 0.00 62 1013.9
20260505115641 63 73 0.0 0.0 0.00 0.00 0.00 63 1013.9
20260505115139 63 316 0.0 0.0 0.00 0.00 0.00 64 1013.7
20260505114636 62 192 0.0 0.0 0.00 0.00 0.00 65 1014.0
20260505114132 62 218 0.0 0.0 0.00 0.00 0.00 64 1013.9
20260505113623 62 170 0.0 1.0 0.00 0.00 0.00 65 1013.7
20260505113120 62 162 1.0 3.0 0.00 0.00 0.00 66 1013.7
20260505112616 61 297 0.0 0.0 0.00 0.00 0.00 66 1013.5
20260505112114 61 234 0.0 0.0 0.00 0.00 0.00 66 1013.5
20260505111608 61 332 0.0 0.0 0.00 0.00 0.00 67 1013.5
20260505111104 61 159 0.0 0.0 0.00 0.00 0.00 67 1013.7
20260505110601 61 307 0.0 0.0 0.00 0.00 0.00 67 1013.5
20260505102033 59 319 2.0 2.0 0.00 0.00 0.00 69 1013.1
20260505101532 59 281 0.0 0.0 0.00 0.00 0.00 69 1013.1
20260505101028 59 325 0.0 1.0 0.00 0.00 0.00 69 1013.0
20260505100525 59 349 0.0 0.0 0.00 0.00 0.00 69 1012.8
20260505100022 59 177 1.0 1.0 0.00 0.00 0.00 69 1012.8
20260505095518 59 149 0.0 0.0 0.00 0.00 0.00 69 1012.7
20260505095014 59 329 0.0 0.0 0.00 0.00 0.00 69 1012.7
20260505094511 59 329 0.0 0.0 0.00 0.00 0.00 69 1012.8
20260505094007 59 336 0.0 0.0 0.00 0.00 0.00 69 1012.5
20260505093503 59 324 0.0 0.0 0.00 0.00 0.00 69 1012.8
20260505093001 59 351 0.0 0.0 0.00 0.00 0.00 69 1012.7
20260505092458 59 306 0.0 0.0 0.00 0.00 0.00 69 1012.7
20260505091956 59 329 0.0 1.0 0.00 0.00 0.00 69 1012.7
20260505091453 59 205 0.0 0.0 0.00 0.00 0.00 69 1012.7
20260505090951 59 358 1.0 1.0 0.00 0.00 0.00 69 1012.8
20260505090449 59 305 1.0 2.0 0.00 0.00 0.00 69 1012.7
20260505085946 58 216 0.0 0.0 0.00 0.00 0.00 71 1012.7
20260505085444 58 342 0.0 0.0 0.00 0.00 0.00 71 1012.7
20260505084942 57 311 0.0 0.0 0.00 0.00 0.00 72 1012.7
20260505084440 57 314 0.0 0.0 0.00 0.00 0.00 73 1012.7
20260505083937 57 277 0.0 0.0 0.00 0.00 0.00 73 1012.6
20260505083435 57 288 0.0 0.0 0.00 0.00 0.00 74 1012.7
20260505082931 56 7 0.0 0.0 0.00 0.00 0.00 75 1012.8
20260505082427 56 7 0.0 0.0 0.00 0.00 0.00 75 1012.8
20260505081924 56 8 0.0 0.0 0.00 0.00 0.00 76 1012.6
20260505081421 56 8 0.0 0.0 0.00 0.00 0.00 76 1012.8
20260505080917 56 8 0.0 0.0 0.00 0.00 0.00 74 1012.8
20260505080413 57 8 0.0 0.0 0.00 0.00 0.00 74 1012.8
20260505075909 57 8 0.0 0.0 0.00 0.00 0.00 73 1012.7
20260505075406 57 8 0.0 0.0 0.00 0.00 0.00 74 1012.8
20260505074903 57 8 0.0 0.0 0.00 0.00 0.00 74 1012.5
20260505074400 58 8 0.0 0.0 0.00 0.00 0.00 73 1012.7
20260505073857 58 51 0.0 0.0 0.00 0.00 0.00 72 1012.6
20260505073355 57 70 0.0 0.0 0.00 0.00 0.00 73 1013.1
20260505072852 58 76 0.0 0.0 0.00 0.00 0.00 72 1012.6
20260505072348 58 102 0.0 0.0 0.00 0.00 0.00 71 1012.7
20260505071844 58 203 0.0 0.0 0.00 0.00 0.00 71 1012.6
20260505071341 59 47 0.0 0.0 0.00 0.00 0.00 71 1012.5
20260505070839 59 58 0.0 0.0 0.00 0.00 0.00 70 1012.6
20260505070335 59 14 0.0 0.0 0.00 0.00 0.00 70 1012.5
20260505065830 59 342 0.0 0.0 0.00 0.00 0.00 70 1012.4
20260505065327 58 324 0.0 0.0 0.00 0.00 0.00 72 1012.4
20260505064825 58 316 0.0 0.0 0.00 0.00 0.00 73 1012.4
20260505064321 58 316 0.0 0.0 0.00 0.00 0.00 72 1012.5
20260505063820 59 309 0.0 0.0 0.00 0.00 0.00 71 1012.3
20260505063315 59 269 0.0 0.0 0.00 0.00 0.00 69 1012.5
20260505062812 59 320 0.0 0.0 0.00 0.00 0.00 68 1012.5
20260505062310 59 316 0.0 0.0 0.00 0.00 0.00 69 1012.3
20260505061806 59 295 0.0 0.0 0.00 0.00 0.00 69 1012.2
20260505061305 59 305 0.0 0.0 0.00 0.00 0.00 68 1012.7
20260505060802 60 335 0.0 0.0 0.00 0.00 0.00 66 1012.5
20260505060259 60 4 0.0 0.0 0.00 0.00 0.00 65 1012.6
20260505055754 59 266 0.0 0.0 0.00 0.00 0.00 67 1012.3
20260505055250 59 37 0.0 1.0 0.00 0.00 0.00 68 1012.5
20260505054748 59 64 0.0 0.0 0.00 0.00 0.00 68 1012.7
20260505054245 59 180 0.0 0.0 0.00 0.00 0.00 69 1012.5
20260505053744 59 179 0.0 0.0 0.00 0.00 0.00 68 1012.4
20260505053240 59 277 0.0 0.0 0.00 0.00 0.00 69 1012.6
20260505052737 58 281 0.0 0.0 0.00 0.00 0.00 69 1012.5
20260505052234 58 306 0.0 0.0 0.00 0.00 0.00 69 1012.7
20260505051731 59 225 0.0 0.0 0.00 0.00 0.00 68 1012.8
20260505051229 59 301 0.0 0.0 0.00 0.00 0.00 70 1012.5
20260505050727 59 284 0.0 0.0 0.00 0.00 0.00 68 1012.8
20260505050225 58 167 0.0 0.0 0.00 0.00 0.00 68 1012.5
20260505041654 60 242 0.0 0.0 0.00 0.00 0.00 65 1012.4
20260505041152 60 242 0.0 0.0 0.00 0.00 0.00 64 1012.3
20260505040649 61 242 0.0 0.0 0.00 0.00 0.00 63 1012.2
20260505040146 61 16 0.0 0.0 0.00 0.00 0.00 62 1012.5
20260505035642 62 263 0.0 1.0 0.00 0.00 0.00 62 1012.4
20260505035138 62 317 0.0 0.0 0.00 0.00 0.00 62 1012.4
20260505034635 62 63 0.0 0.0 0.00 0.00 0.00 62 1012.3
20260505034132 61 150 1.0 1.0 0.00 0.00 0.00 61 1012.3
20260505033628 62 104 0.0 0.0 0.00 0.00 0.00 62 1012.4
20260505033127 61 232 0.0 0.0 0.00 0.00 0.00 62 1012.5
20260505032625 62 309 0.0 0.0 0.00 0.00 0.00 62 1012.4
20260505032121 62 140 0.0 0.0 0.00 0.00 0.00 64 1012.4
20260505031618 62 87 0.0 0.0 0.00 0.00 0.00 61 1012.1
20260505031114 62 8 0.0 0.0 0.00 0.00 0.00 62 1012.4
20260505030611 62 8 0.0 0.0 0.00 0.00 0.00 61 1012.4
20260505030107 62 147 0.0 0.0 0.00 0.00 0.00 61 1012.4
20260505025602 62 117 0.0 0.0 0.00 0.00 0.00 61 1012.4
20260505025057 63 329 0.0 0.0 0.00 0.00 0.00 59 1012.5
20260505024553 63 329 0.0 0.0 0.00 0.00 0.00 60 1012.4
20260505024051 64 292 0.0 0.0 0.00 0.00 0.00 58 1012.4
20260505023548 63 220 0.0 0.0 0.00 0.00 0.00 60 1012.3
20260505023045 62 258 0.0 1.0 0.00 0.00 0.00 61 1012.3
20260505022543 62 19 0.0 0.0 0.00 0.00 0.00 63 1012.1
20260505022040 62 47 0.0 0.0 0.00 0.00 0.00 62 1012.3
20260505021536 62 32 0.0 0.0 0.00 0.00 0.00 64 1012.4
20260505021033 62 4 0.0 0.0 0.00 0.00 0.00 63 1012.5
20260505020532 62 3 0.0 0.0 0.00 0.00 0.00 63 1012.3
20260505020030 63 75 0.0 0.0 0.00 0.00 0.00 62 1012.3
20260505015527 62 47 0.0 0.0 0.00 0.00 0.00 62 1012.4
20260505015024 63 319 0.0 0.0 0.00 0.00 0.00 63 1012.2
20260505014520 63 48 0.0 0.0 0.00 0.00 0.00 61 1012.2
20260505014018 63 32 0.0 0.0 0.00 0.00 0.00 63 1012.1
20260505013515 63 28 0.0 0.0 0.00 0.00 0.00 62 1012.1
20260505013012 63 2 0.0 0.0 0.00 0.00 0.00 61 1012.2
20260505012510 63 357 0.0 0.0 0.00 0.00 0.00 63 1011.9
20260505012007 63 129 0.0 0.0 0.00 0.00 0.00 59 1011.9
20260505011503 64 146 0.0 0.0 0.00 0.00 0.00 59 1012.1
20260505011000 64 129 0.0 0.0 0.00 0.00 0.00 59 1012.0
20260505010455 65 119 0.0 0.0 0.00 0.00 0.00 58 1011.9
20260505005951 65 67 0.0 0.0 0.00 0.00 0.00 57 1011.9
20260505005448 66 94 0.0 0.0 0.00 0.00 0.00 55 1011.9
20260505004946 66 41 0.0 0.0 0.00 0.00 0.00 54 1011.8
20260505004443 67 142 1.0 1.0 0.00 0.00 0.00 54 1011.8
20260505003939 66 65 0.0 0.0 0.00 0.00 0.00 53 1011.9
20260505003437 67 93 1.0 2.0 0.00 0.00 0.00 53 1011.8
20260505002933 67 72 0.0 0.0 0.00 0.00 0.00 52 1011.8
20260505002429 67 295 0.0 0.0 0.00 0.00 0.00 52 1011.9
20260505001928 67 67 0.0 0.0 0.00 0.00 0.00 50 1011.8
20260505001425 68 161 0.0 0.0 0.00 0.00 0.00 50 1011.8
20260505000922 68 61 0.0 0.0 0.00 0.00 0.00 49 1011.6
20260505000420 69 168 0.0 0.0 0.00 0.00 0.00 48 1011.7
20260504235916 69 172 1.0 1.0 0.00 0.00 0.00 48 1011.5
20260504235414 69 269 0.0 0.0 0.00 0.00 0.00 47 1011.7
20260504234910 69 84 0.0 0.0 0.00 0.00 0.00 47 1011.6
20260504234407 69 266 0.0 0.0 0.00 0.00 0.00 47 1011.6
20260504233904 70 166 1.0 2.0 0.00 0.00 0.00 46 1011.6
20260504233359 70 142 0.0 1.0 0.00 0.00 0.00 45 1011.7
20260504232856 70 173 0.0 1.0 0.00 0.00 0.00 46 1011.6
20260504232353 71 129 0.0 1.0 0.00 0.00 0.00 46 1011.8
20260504231850 71 214 1.0 1.0 0.00 0.00 0.00 45 1011.6
20260504231347 72 41 0.0 1.0 0.00 0.00 0.00 45 1011.6
20260504230843 72 143 1.0 1.0 0.00 0.00 0.00 44 1011.9
20260504230341 71 85 0.0 1.0 0.00 0.00 0.00 44 1011.7
20260504225839 72 59 3.0 4.0 0.00 0.00 0.00 44 1011.7
20260504225335 72 171 2.0 2.0 0.00 0.00 0.00 43 1011.6
20260504224833 73 338 0.0 1.0 0.00 0.00 0.00 41 1011.6
20260504224330 73 54 0.0 1.0 0.00 0.00 0.00 42 1011.6
20260504223826 73 355 0.0 0.0 0.00 0.00 0.00 42 1011.5
20260504223322 74 75 2.0 4.0 0.00 0.00 0.00 41 1011.5
20260504222819 74 284 1.0 1.0 0.00 0.00 0.00 40 1011.3
20260504222316 75 168 0.0 1.0 0.00 0.00 0.00 39 1011.5
20260504221814 75 4 0.0 1.0 0.00 0.00 0.00 39 1011.4
20260504221310 75 5 0.0 0.0 0.00 0.00 0.00 38 1011.4
20260504220807 76 47 0.0 1.0 0.00 0.00 0.00 38 1011.5
20260504220304 77 65 2.0 2.0 0.00 0.00 0.00 37 1011.5
20260504215802 78 351 2.0 3.0 0.00 0.00 0.00 34 1011.2
20260504215258 78 328 1.0 1.0 0.00 0.00 0.00 34 1011.2
20260504214753 78 202 1.0 2.0 0.00 0.00 0.00 34 1011.4
20260504214244 78 121 2.0 3.0 0.00 0.00 0.00 34 1011.3
20260504213741 78 260 2.0 2.0 0.00 0.00 0.00 34 1011.3
20260504213237 77 310 1.0 1.0 0.00 0.00 0.00 34 1011.4
20260504212734 78 141 4.0 4.0 0.00 0.00 0.00 34 1011.5
20260504212225 77 227 1.0 1.0 0.00 0.00 0.00 34 1011.5
20260504211722 78 16 1.0 2.0 0.00 0.00 0.00 35 1011.3
20260504211213 79 188 1.0 2.0 0.00 0.00 0.00 33 1011.5
20260504210711 79 291 3.0 4.0 0.00 0.00 0.00 33 1011.3
20260504210207 79 130 2.0 3.0 0.00 0.00 0.00 32 1011.5
20260504205705 79 81 1.0 2.0 0.00 0.00 0.00 33 1011.3
20260504205202 78 147 2.0 3.0 0.00 0.00 0.00 34 1011.7
20260504204701 78 315 1.0 1.0 0.00 0.00 0.00 34 1011.6
20260504204159 79 216 1.0 2.0 0.00 0.00 0.00 34 1011.8
20260504203657 78 11 1.0 2.0 0.00 0.00 0.00 33 1011.7
20260504203154 79 261 1.0 2.0 0.00 0.00 0.00 34 1011.5
20260504202649 80 12 2.0 2.0 0.00 0.00 0.00 33 1011.8
20260504202146 80 215 2.0 2.0 0.00 0.00 0.00 32 1011.8
20260504201643 79 309 0.0 0.0 0.00 0.00 0.00 33 1011.7
20260504201141 79 25 2.0 2.0 0.00 0.00 0.00 34 1011.8
20260504200638 79 72 1.0 1.0 0.00 0.00 0.00 33 1012.0
20260504200134 78 121 1.0 2.0 0.00 0.00 0.00 33 1011.9
20260504195630 78 289 2.0 2.0 0.00 0.00 0.00 34 1012.2
20260504195127 78 184 1.0 2.0 0.00 0.00 0.00 35 1012.1
20260504194624 78 192 2.0 3.0 0.00 0.00 0.00 34 1012.1
20260504194120 78 5 1.0 1.0 0.00 0.00 0.00 34 1012.4
20260504193616 79 5 0.0 1.0 0.00 0.00 0.00 32 1012.5
20260504193114 78 41 0.0 1.0 0.00 0.00 0.00 34 1012.6
20260504192612 78 218 2.0 2.0 0.00 0.00 0.00 34 1012.6
20260504192110 78 331 1.0 2.0 0.00 0.00 0.00 33 1012.9
20260504191608 79 59 0.0 1.0 0.00 0.00 0.00 31 1012.9
20260504191104 78 357 2.0 4.0 0.00 0.00 0.00 34 1012.8
20260504190600 78 182 0.0 0.0 0.00 0.00 0.00 34 1012.9
20260504190056 77 196 4.0 4.0 0.00 0.00 0.00 34 1013.0
20260504185553 76 131 1.0 1.0 0.00 0.00 0.00 32 1012.9
20260504185050 77 331 2.0 3.0 0.00 0.00 0.00 33 1013.2
20260504184545 77 161 1.0 2.0 0.00 0.00 0.00 33 1013.4
20260504184041 78 330 4.0 4.0 0.00 0.00 0.00 32 1013.4
20260504183538 77 326 2.0 3.0 0.00 0.00 0.00 31 1013.5
20260504183036 78 69 1.0 1.0 0.00 0.00 0.00 33 1013.5
20260504182533 77 279 0.0 1.0 0.00 0.00 0.00 33 1013.4
20260504182031 78 224 2.0 2.0 0.00 0.00 0.00 33 1013.5
20260504181527 75 79 1.0 2.0 0.00 0.00 0.00 33 1013.4
20260504181026 77 311 3.0 4.0 0.00 0.00 0.00 34 1013.7
20260504180524 76 258 2.0 3.0 0.00 0.00 0.00 34 1013.6
20260504180023 75 349 0.0 1.0 0.00 0.00 0.00 34 1013.7
20260504175519 77 129 1.0 1.0 0.00 0.00 0.00 33 1013.8
20260504175016 76 39 1.0 2.0 0.00 0.00 0.00 33 1014.0
20260504174514 76 40 1.0 2.0 0.00 0.00 0.00 33 1014.0
20260504174011 76 324 0.0 0.0 0.00 0.00 0.00 33 1014.1
20260504173508 75 241 1.0 2.0 0.00 0.00 0.00 34 1014.2
20260504173005 76 141 2.0 3.0 0.00 0.00 0.00 33 1014.2
20260504172501 75 247 1.0 2.0 0.00 0.00 0.00 34 1014.3
20260504171957 75 159 2.0 3.0 0.00 0.00 0.00 34 1014.2
20260504171455 74 76 0.0 1.0 0.00 0.00 0.00 33 1014.2
20260504170951 73 13 3.0 4.0 0.00 0.00 0.00 34 1014.3
20260504170447 74 3 1.0 1.0 0.00 0.00 0.00 34 1014.4
20260504160408 72 289 2.0 3.0 0.00 0.00 0.00 34 1015.1